Location: Ammerl�gen
(47.2167°N, 9.6000°E)
Time: 03:59:30
(UTC+00:00)

NOAA 19 - Pass Details

Date: 07 December 2021
Orbit: 841 x 860 km, 99.2° (Epoch: 16 January)

Event Time Altitude Azimuth Distance (km) Brightness Sun altitude
Rises 19:40:41 0° 219° (SW) 3,387 8.6 -41.2°
Reaches altitude 10° 19:44:33 10° 247° (WSW) 2,461 8.1 -41.9°
Maximum altitude 19:46:55 13° 273° (W) 2,271 8.0 -42.3°
Drops below altitude 10° 19:49:17 10° 299° (WNW) 2,473 8.2 -42.6°
Sets 19:53:13 0° 327° (NNW) 3,419 8.8 -43.3°
